Flag for Colombia Weather past 2 weeks in Bogota, Colombia

Now
59 °F

Passing clouds.


Feels Like: 58 °F
Forecast: N/A
Wind: 7 mph from Northwest

Location: Bogota / Eldorado

Current Time: Sep 17, 2014 at 6:40:40 PM

Latest Report: Sep 17, 2014 at 6:00 PM


Visibility: N/A

Pressure: 30.27 "Hg

Humidity: 77%

Dew point: 52 °F

Location of BogotaLocation

Historic Weather in Bogota — Graph

°F

Bogota temperature yesterday

Maximum temperature yesterday: 64 °F (at 11:00 AM)
Minimum temperature yesterday: 43 °F (at 5:00 AM)
Average temperature yesterday: 56 °F

Past Weeks' High & Low Weather Summary

 TemperatureHumidityPressure
High68 °F (Sep 9, 3:00 PM)100% (Sep 3, 4:00 AM)30.44 "Hg (Sep 3, 4:00 AM)
Low41 °F (Sep 5, 2:00 AM)42% (Sep 9, 6:00 PM)30.17 "Hg (Sep 11, 4:00 PM)
Average56 °F72%30.32 "Hg
* Reported Sep 2 5:00 PM — Sep 17 5:00 PM, Bogota, Weather by CustomWeather, © 2014

Note: Actual official high and low records may vary slightly from our data, if they occured in-between our weather recording intervals... More about our weather records

Advertising

Bogota weather history for previous 24 hours

 ConditionsComfort  
Time TempWeatherWind HumidityBarometerVisibility
5:00 PM
Sep 17
61 °FScattered clouds.10 mph68%30.25 "HgN/A
4:00 PM63 °FScattered clouds.12 mph64%30.25 "HgN/A
3:00 PM66 °FScattered clouds.13 mph56%30.27 "HgN/A
2:00 PM63 °FPartly sunny.12 mph59%30.30 "HgN/A
1:00 PM64 °FPartly sunny.5 mph49%30.32 "HgN/A
12:00 PM68 °FPartly sunny.6 mph43%30.35 "HgN/A
11:00 AM63 °FScattered showers. Broken clouds.5 mph52%30.38 "HgN/A
10:00 AM61 °FScattered showers. Broken clouds.3 mph55%30.41 "HgN/A
9:00 AM57 °FBroken clouds.3 mph88%30.40 "HgN/A
8:00 AM52 °FBroken clouds.3 mph82%30.40 "HgN/A
7:00 AM48 °FScattered clouds.3 mph94%30.38 "HgN/A
6:00 AM45 °FScattered clouds.2 mph100%30.35 "HgN/A
5:00 AM46 °FPassing clouds.2 mph93%30.34 "HgN/A
4:00 AM45 °FPassing clouds.3 mph100%30.33 "HgN/A
3:00 AM46 °FPassing clouds.2 mph93%30.33 "HgN/A
2:00 AM48 °FPassing clouds.2 mph94%30.34 "HgN/A
1:00 AM50 °FPassing clouds.5 mph88%30.35 "HgN/A
12:00 AM50 °FPassing clouds.6 mph88%30.37 "HgN/A
11:00 PM
Sep 16
54 °FPassing clouds.6 mph77%30.38 "HgN/A
10:00 PM55 °FPassing clouds.7 mph77%30.40 "HgN/A
9:00 PM55 °FPassing clouds.7 mph77%30.38 "HgN/A
8:00 PM57 °FPassing clouds.3 mph67%30.36 "HgN/A
7:00 PM57 °FPassing clouds.7 mph67%30.33 "HgN/A
6:00 PM61 °FPassing clouds.7 mph48%30.31 "HgN/A
Weather by CustomWeather, © 2014

See weather overviewHow to use our weather pages